Regional Weather Roundup
Issued by NWS

Home | Current Version | Previous Version | Text Only | Print | Product List | Glossary Off
Versions: 1 2 3 4 5 6 7 8 9 10 11 12 13 14 15 16 17 18 19 20 21 22 23 24 25 26 27 28 29 30 31 32 33 34 35 36 37 38 39 40 41 42 43 44 45 46 47 48 49 50

000
ASUS43 KDMX 030007
RWRIA

WEATHER ROUNDUP FOR IOWA
NATIONAL WEATHER SERVICE DES MOINES IA
700 PM CDT SAT MAY 02 2015

NOTE: "FAIR" INDICATES FEW OR NO CLOUDS BELOW 12,000 FEET WITH NO
SIGNIFICANT WEATHER AND/OR OBSTRUCTIONS TO VISIBILITY.

* - THESE STATIONS ARE NOT NWS STATIONS...THUS NOT UNDER NWS
QUALITY CONTROL.  THEY ALSO DO NOT REPORT WEATHER SUCH
AS PRECIPITATION OR FOG.

IAZ001>003-012>014-020>022-031>034-043>046-030100-
   NORTHWEST IOWA

CITY           SKY/WX    TMP DP  RH WIND       PRES   REMARKS
CARROLL *      SUNNY     68  54  60 S21       29.83F
CHEROKEE *     SUNNY     71  55  58 S10       29.79F
DENISON *      SUNNY     70  55  60 S15G22    29.79F
LE MARS *      SUNNY     75  55  50 S12G20    29.77F
ORANGE CITY *  SUNNY     72  54  53 S10       29.78S
SHELDON *      SUNNY     73  54  49 S12G21    29.77S
SIOUX CITY     SUNNY     76  55  48 SE13      29.75F
6HR MIN TEMP:  75; 6HR MAX TEMP:  79;

SPENCER        MOSUNNY   74  54  49 S16       29.79F
6HR MIN TEMP:  74; 6HR MAX TEMP:  80;

STORM LAKE *   SUNNY     70  54  56 S18       29.81F
$$

IAZ055>058-069>071-079>083-090>094-030100-
   SOUTHWEST IOWA

CITY           SKY/WX    TMP DP  RH WIND       PRES   REMARKS
ATLANTIC *     SUNNY     68  54  60 S15G22    29.84F
AUDUBON *      SUNNY     66  55  68 S9G18     29.85F
CLARINDA *     SUNNY     68  57  68 S12G18    29.86F
COUNCIL BLFS * SUNNY     68  59  73 S17       29.81F
CRESTON *      SUNNY     64  54  68 S17       29.88F
HARLAN  *      SUNNY     70  55  60 S18G28    29.85F
LAMONI         MOSUNNY   64  54  69 SE12      29.89F
6HR MIN TEMP:  56; 6HR MAX TEMP:  65; 6HR PCP:  0.07;

RED OAK *      SUNNY     68  57  68 S15G21    29.84F
SHENANDOAH *   SUNNY     70  59  68 SE17G24   29.83F
$$

IAZ047>049-059>061-072>074-084-030100-
   CENTRAL IOWA

CITY           SKY/WX    TMP DP  RH WIND       PRES   REMARKS
AMES           CLOUDY    65  53  65 S16G26    29.88S
6HR MIN TEMP:  64; 6HR MAX TEMP:  70;

ANKENY *       CLOUDY    66  55  68 S12G24    29.88F
CHARITON *     MOSUNNY   63  57  82 SE13G20   29.90F
DES MOINES     MOSUNNY   65  55  70 S15       29.89F
6HR MIN TEMP:  63; 6HR MAX TEMP:  66; 6HR PCP: TRACE;

GRINNELL*      CLOUDY    63  54  72 S8        29.92R
KNOXVILLE *    CLOUDY    63  55  77 S10G16    29.89F
MARSHALLTOWN   MOSUNNY   66  53  63 S9        29.88F
6HR MIN TEMP:  66; 6HR MAX TEMP:  70;

PELLA *        PTSUNNY   58  58 100 S8        29.92R
PERRY *          N/A     66  54  63 S16       29.86F
$$

IAZ004>006-015-016-023>025-035-036-030100-
   NORTH CENTRAL IOWA

CITY           SKY/WX    TMP DP  RH WIND       PRES   REMARKS
ALGONA *       SUNNY     72  52  49 SW23      29.82S
CLARION *      SUNNY     72  52  49 S22       29.85S
ESTHERVILLE    SUNNY     73  51  46 S17G26    29.79S
6HR MIN TEMP:  73; 6HR MAX TEMP:  79;

FORT DODGE *   MOSUNNY   68  52  56 S18       29.86S
MASON CITY     SUNNY     72  51  47 S16G25    29.85S
6HR MIN TEMP:  72; 6HR MAX TEMP:  78;

FOREST CITY *  SUNNY     72  46  40 S17       29.82F
IOWA FALLS *     N/A     70  50  49 S21G29    29.89S
$$

IAZ007>011-017>019-026>030-037>042-050>054-066-030100-
   NORTHEAST IOWA

CITY           SKY/WX    TMP DP  RH WIND       PRES   REMARKS
CEDAR RAPIDS   PTSUNNY   68  52  56 SW16      29.93F
CHARLES CITY * SUNNY     70  50  49 S18G24    29.87S
CLINTON *        N/A     72  41  33 W12       29.97R
DECORAH *      SUNNY     72  48  43 SW6G21    29.86F
DUBUQUE        PTSUNNY   69  50  50 SW15      29.92S
6HR MIN TEMP:  69; 6HR MAX TEMP:  76;

MONTICELLO *   SUNNY     70  50  49 S13       29.92S
OELWEIN *      SUNNY     70  50  49 SW16G22   29.90F
WATERLOO       SUNNY     69  52  54 S9        29.88F
6HR MIN TEMP:  69; 6HR MAX TEMP:  76;

$$

IAZ064-065-067-068-078-030100-
   EAST CENTRAL IOWA

CITY           SKY/WX    TMP DP  RH WIND       PRES   REMARKS
DAVENPORT      CLOUDY    70  49  47 W17       29.96R
6HR MIN TEMP:  70; 6HR MAX TEMP:  78;

IOWA CITY      PTSUNNY   67  53  61 S12       29.95F
6HR MIN TEMP:  67; 6HR MAX TEMP:  76;

MT. PLEASANT * CLOUDY    63  52  66 S18G25    29.94F
MUSCATINE *    PTSUNNY   68  50  52 S8        29.95F
QUAD CITIES    CLOUDY    71  42  35 W10       29.95R
6HR MIN TEMP:  71; 6HR MAX TEMP:  79;

$$

IAZ062-063-075>077-085>089-095>099-030100-
   SOUTHEAST IOWA

CITY           SKY/WX    TMP DP  RH WIND       PRES   REMARKS
BURLINGTON     LGT RAIN  66  53  63 S14       29.96F
6HR MIN TEMP:  66; 6HR MAX TEMP:  76; 6HR PCP: TRACE;

FAIRFIELD *    DRIZZLE   61  55  82 N12G18    29.93S
FORT MADISON * LGT RAIN  63  54  72 S13       29.96F
KEOKUK *       LGT RAIN  59  54  82 CALM      29.98S
OSKALOOSA *    CLOUDY    59  54  83 S20       29.91F
CENTERVILLE *  SUNNY     63  57  82 SE10      29.94F
OTTUMWA        CLOUDY    60  56  86 S8        29.93R
6HR MIN TEMP:  58; 6HR MAX TEMP:  71; 6HR PCP:  0.14;

WASHINGTON *   SUNNY     64  55  72 S3        29.94F
$$

ABBREVIATIONS USED IN REMARKS
   TC - TEMPERATURES IN CELSIUS
  WCI - WIND CHILL INDEX
   HX - HEAT INDEX
  VSB - VISIBILITY
$$




USA.gov is the U.S. government's official web portal to all federal, state and local government web resources and services.